contact:dominique.lefevre@mio.osupytheas.fr, maurice.libes@osupytheas.fr, didier.mallarino@osupytheas.fr
Project:EMSO http://www.emso-fr.org/EMSO-France
Depth: 2436.0 m
Title:EMSO Ligure Ouest : Data MII capteur MICROCAT
DateTime_Computer,Latitude,Longitude,Temperature,Conductivity,Pressure,DateTime_Instrument
DateTime_Computer,Latitude,Longitude,degC,S m-1,dbar,DateTime_Instrument
2017-10-18T00:00:19Z,42.805,6.029,13.2939,4.59963,2471.889,2017-10-18T02:01:43Z
2017-10-18T00:01:53Z,42.805,6.029,13.2934,4.59965,2471.852,2017-10-18T02:03:18Z
2017-10-18T00:03:28Z,42.805,6.029,13.2937,4.59964,2471.866,2017-10-18T02:04:53Z
2017-10-18T00:05:03Z,42.805,6.029,13.2939,4.59964,2471.866,2017-10-18T02:06:28Z
2017-10-18T00:06:38Z,42.805,6.029,13.2935,4.59961,2471.852,2017-10-18T02:08:03Z
2017-10-18T00:08:13Z,42.805,6.029,13.2939,4.59961,2471.912,2017-10-18T02:09:38Z
2017-10-18T00:09:48Z,42.805,6.029,13.2935,4.59959,2471.889,2017-10-18T02:11:12Z
2017-10-18T00:11:22Z,42.805,6.029,13.2935,4.59960,2471.889,2017-10-18T02:12:47Z
2017-10-18T00:12:57Z,42.805,6.029,13.2937,4.59960,2471.852,2017-10-18T02:14:22Z
2017-10-18T00:14:32Z,42.805,6.029,13.2935,4.59960,2471.829,2017-10-18T02:15:57Z
2017-10-18T00:16:07Z,42.805,6.029,13.2939,4.59960,2471.866,2017-10-18T02:17:32Z
2017-10-18T00:17:42Z,42.805,6.029,13.2939,4.59961,2471.866,2017-10-18T02:19:07Z
2017-10-18T00:19:17Z,42.805,6.029,13.2936,4.59961,2471.866,2017-10-18T02:20:41Z
2017-10-18T00:20:51Z,42.805,6.029,13.2935,4.59961,2471.874,2017-10-18T02:22:16Z
2017-10-18T00:22:26Z,42.805,6.029,13.2939,4.59960,2471.852,2017-10-18T02:23:51Z
2017-10-18T00:24:01Z,42.805,6.029,13.2937,4.59960,2471.866,2017-10-18T02:25:26Z
2017-10-18T00:25:36Z,42.805,6.029,13.2940,4.59960,2471.844,2017-10-18T02:27:01Z
2017-10-18T00:27:11Z,42.805,6.029,13.2933,4.59960,2471.829,2017-10-18T02:28:36Z
2017-10-18T00:28:46Z,42.805,6.029,13.2940,4.59961,2471.889,2017-10-18T02:30:10Z
2017-10-18T00:30:20Z,42.805,6.029,13.2939,4.59961,2471.844,2017-10-18T02:31:45Z
2017-10-18T00:31:55Z,42.805,6.029,13.2934,4.59961,2471.874,2017-10-18T02:33:20Z
2017-10-18T00:33:30Z,42.805,6.029,13.2935,4.59963,2471.866,2017-10-18T02:34:55Z
2017-10-18T00:35:05Z,42.805,6.029,13.2938,4.59964,2471.874,2017-10-18T02:36:30Z
2017-10-18T00:36:40Z,42.805,6.029,13.2939,4.59964,2471.829,2017-10-18T02:38:05Z
2017-10-18T00:38:15Z,42.805,6.029,13.2938,4.59965,2471.874,2017-10-18T02:39:40Z
2017-10-18T00:39:49Z,42.805,6.029,13.2937,4.59964,2471.866,2017-10-18T02:41:14Z
2017-10-18T00:41:24Z,42.805,6.029,13.2938,4.59962,2471.889,2017-10-18T02:42:49Z
2017-10-18T00:42:59Z,42.805,6.029,13.2941,4.59964,2471.866,2017-10-18T02:44:24Z
2017-10-18T00:44:34Z,42.805,6.029,13.2937,4.59962,2471.866,2017-10-18T02:45:59Z
2017-10-18T00:46:09Z,42.805,6.029,13.2934,4.59963,2471.852,2017-10-18T02:47:34Z
2017-10-18T00:47:44Z,42.805,6.029,13.2935,4.59964,2471.852,2017-10-18T02:49:09Z
2017-10-18T00:49:18Z,42.805,6.029,13.2937,4.59962,2471.844,2017-10-18T02:50:43Z
2017-10-18T00:50:53Z,42.805,6.029,13.2939,4.59961,2471.844,2017-10-18T02:52:18Z
2017-10-18T00:52:28Z,42.805,6.029,13.2935,4.59961,2471.852,2017-10-18T02:53:53Z
2017-10-18T00:54:03Z,42.805,6.029,13.2939,4.59961,2471.866,2017-10-18T02:55:28Z
2017-10-18T00:55:38Z,42.805,6.029,13.2935,4.59961,2471.844,2017-10-18T02:57:03Z
2017-10-18T00:57:13Z,42.805,6.029,13.2937,4.59961,2471.889,2017-10-18T02:58:38Z
2017-10-18T00:58:48Z,42.805,6.029,13.2940,4.59961,2471.866,2017-10-18T03:00:12Z
2017-10-18T01:00:22Z,42.805,6.029,13.2936,4.59961,2471.852,2017-10-18T03:01:47Z
2017-10-18T01:01:57Z,42.805,6.029,13.2940,4.59961,2471.866,2017-10-18T03:03:22Z
2017-10-18T01:03:32Z,42.805,6.029,13.2936,4.59961,2471.866,2017-10-18T03:04:57Z
2017-10-18T01:05:07Z,42.805,6.029,13.2933,4.59962,2471.889,2017-10-18T03:06:32Z
2017-10-18T01:06:42Z,42.805,6.029,13.2938,4.59964,2471.829,2017-10-18T03:08:07Z
2017-10-18T01:08:17Z,42.805,6.029,13.2940,4.59962,2471.829,2017-10-18T03:09:41Z
2017-10-18T01:09:51Z,42.805,6.029,13.2939,4.59964,2471.844,2017-10-18T03:11:16Z
2017-10-18T01:11:26Z,42.805,6.029,13.2936,4.59962,2471.844,2017-10-18T03:12:51Z
2017-10-18T01:13:01Z,42.805,6.029,13.2939,4.59964,2471.852,2017-10-18T03:14:26Z
2017-10-18T01:14:36Z,42.805,6.029,13.2938,4.59964,2471.866,2017-10-18T03:16:01Z
2017-10-18T01:16:11Z,42.805,6.029,13.2935,4.59963,2471.866,2017-10-18T03:17:36Z
2017-10-18T01:17:46Z,42.805,6.029,13.2935,4.59961,2471.829,2017-10-18T03:19:10Z
2017-10-18T01:19:20Z,42.805,6.029,13.2940,4.59961,2471.829,2017-10-18T03:20:45Z
2017-10-18T01:20:55Z,42.805,6.029,13.2938,4.59963,2471.844,2017-10-18T03:22:20Z
2017-10-18T01:22:30Z,42.805,6.029,13.2939,4.59961,2471.844,2017-10-18T03:23:55Z
2017-10-18T01:24:05Z,42.805,6.029,13.2935,4.59963,2471.889,2017-10-18T03:25:30Z
2017-10-18T01:25:40Z,42.805,6.029,13.2939,4.59964,2471.866,2017-10-18T03:27:05Z
2017-10-18T01:27:15Z,42.805,6.029,13.2931,4.59961,2471.844,2017-10-18T03:28:39Z
2017-10-18T01:28:49Z,42.805,6.029,13.2939,4.59961,2471.866,2017-10-18T03:30:14Z
2017-10-18T01:30:24Z,42.805,6.029,13.2936,4.59961,2471.852,2017-10-18T03:31:49Z
2017-10-18T01:31:59Z,42.805,6.029,13.2939,4.59964,2471.852,2017-10-18T03:33:24Z
2017-10-18T01:33:34Z,42.805,6.029,13.2938,4.59963,2471.866,2017-10-18T03:34:59Z
2017-10-18T01:35:09Z,42.805,6.029,13.2937,4.59962,2471.852,2017-10-18T03:36:34Z
2017-10-18T01:36:44Z,42.805,6.029,13.2938,4.59963,2471.889,2017-10-18T03:38:08Z
2017-10-18T01:38:18Z,42.805,6.029,13.2935,4.59961,2471.874,2017-10-18T03:39:43Z
2017-10-18T01:39:53Z,42.805,6.029,13.2940,4.59961,2471.866,2017-10-18T03:41:18Z
2017-10-18T01:41:28Z,42.805,6.029,13.2940,4.59962,2471.866,2017-10-18T03:42:53Z
2017-10-18T01:43:03Z,42.805,6.029,13.2935,4.59961,2471.852,2017-10-18T03:44:28Z
2017-10-18T01:44:38Z,42.805,6.029,13.2937,4.59962,2471.866,2017-10-18T03:46:03Z
2017-10-18T01:46:13Z,42.805,6.029,13.2939,4.59964,2471.844,2017-10-18T03:47:37Z
2017-10-18T01:47:47Z,42.805,6.029,13.2938,4.59962,2471.829,2017-10-18T03:49:12Z
2017-10-18T01:49:22Z,42.805,6.029,13.2936,4.59961,2471.866,2017-10-18T03:50:47Z
2017-10-18T01:50:57Z,42.805,6.029,13.2937,4.59961,2471.866,2017-10-18T03:52:22Z
2017-10-18T01:52:32Z,42.805,6.029,13.2939,4.59961,2471.844,2017-10-18T03:53:57Z
2017-10-18T01:54:07Z,42.805,6.029,13.2939,4.59960,2471.829,2017-10-18T03:55:32Z
2017-10-18T01:55:42Z,42.805,6.029,13.2933,4.59962,2471.829,2017-10-18T03:57:06Z
2017-10-18T01:57:16Z,42.805,6.029,13.2941,4.59961,2471.912,2017-10-18T03:58:41Z
2017-10-18T01:58:51Z,42.805,6.029,13.2937,4.59962,2471.866,2017-10-18T04:00:16Z
2017-10-18T02:00:26Z,42.805,6.029,13.2935,4.59962,2471.866,2017-10-18T04:01:51Z
2017-10-18T02:02:01Z,42.805,6.029,13.2938,4.59964,2471.874,2017-10-18T04:03:26Z
2017-10-18T02:03:36Z,42.805,6.029,13.2937,4.59962,2471.889,2017-10-18T04:05:01Z
2017-10-18T02:05:11Z,42.805,6.029,13.2936,4.59964,2471.874,2017-10-18T04:06:35Z
2017-10-18T02:06:45Z,42.805,6.029,13.2939,4.59963,2471.866,2017-10-18T04:08:10Z
2017-10-18T02:08:20Z,42.805,6.029,13.2938,4.59963,2471.889,2017-10-18T04:09:45Z
2017-10-18T02:09:55Z,42.805,6.029,13.2940,4.59962,2471.874,2017-10-18T04:11:20Z
2017-10-18T02:11:30Z,42.805,6.029,13.2942,4.59962,2471.866,2017-10-18T04:12:55Z
2017-10-18T02:13:05Z,42.805,6.029,13.2937,4.59962,2471.874,2017-10-18T04:14:30Z
2017-10-18T02:14:40Z,42.805,6.029,13.2938,4.59964,2471.889,2017-10-18T04:16:04Z
2017-10-18T02:16:14Z,42.805,6.029,13.2937,4.59962,2471.889,2017-10-18T04:17:39Z
2017-10-18T02:17:49Z,42.805,6.029,13.2938,4.59967,2471.889,2017-10-18T04:19:14Z
2017-10-18T02:19:24Z,42.805,6.029,13.2939,4.59962,2471.866,2017-10-18T04:20:49Z
2017-10-18T02:20:59Z,42.805,6.029,13.2937,4.59963,2471.889,2017-10-18T04:22:24Z
2017-10-18T02:22:34Z,42.805,6.029,13.2939,4.59963,2471.912,2017-10-18T04:23:59Z
2017-10-18T02:24:09Z,42.805,6.029,13.2940,4.59961,2471.897,2017-10-18T04:25:34Z
2017-10-18T02:25:43Z,42.805,6.029,13.2939,4.59964,2471.874,2017-10-18T04:27:08Z
2017-10-18T02:27:18Z,42.805,6.029,13.2938,4.59964,2471.897,2017-10-18T04:28:43Z
2017-10-18T02:28:53Z,42.805,6.029,13.2943,4.59963,2471.874,2017-10-18T04:30:18Z
2017-10-18T02:30:28Z,42.805,6.029,13.2938,4.59964,2471.874,2017-10-18T04:31:53Z
2017-10-18T02:32:03Z,42.805,6.029,13.2934,4.59961,2471.912,2017-10-18T04:33:28Z
2017-10-18T02:33:38Z,42.805,6.029,13.2940,4.59961,2471.912,2017-10-18T04:35:03Z
2017-10-18T02:35:12Z,42.805,6.029,13.2936,4.59963,2471.934,2017-10-18T04:36:37Z
2017-10-18T02:36:47Z,42.805,6.029,13.2937,4.59961,2471.889,2017-10-18T04:38:12Z
2017-10-18T02:38:22Z,42.805,6.029,13.2939,4.59963,2471.912,2017-10-18T04:39:47Z
2017-10-18T02:39:57Z,42.805,6.029,13.2941,4.59962,2471.912,2017-10-18T04:41:22Z
2017-10-18T02:41:32Z,42.805,6.029,13.2938,4.59961,2471.912,2017-10-18T04:42:57Z
2017-10-18T02:43:07Z,42.805,6.029,13.2940,4.59964,2471.897,2017-10-18T04:44:32Z
2017-10-18T02:44:41Z,42.805,6.029,13.2937,4.59963,2471.897,2017-10-18T04:46:06Z
2017-10-18T02:46:16Z,42.805,6.029,13.2937,4.59962,2471.919,2017-10-18T04:47:41Z
2017-10-18T02:47:51Z,42.805,6.029,13.2939,4.59964,2471.889,2017-10-18T04:49:16Z
2017-10-18T02:49:26Z,42.805,6.029,13.2934,4.59963,2471.897,2017-10-18T04:50:51Z
2017-10-18T02:51:01Z,42.805,6.029,13.2939,4.59967,2471.897,2017-10-18T04:52:26Z
2017-10-18T02:52:36Z,42.805,6.029,13.2940,4.59962,2471.934,2017-10-18T04:54:01Z
2017-10-18T02:54:11Z,42.805,6.029,13.2940,4.59963,2471.897,2017-10-18T04:55:35Z
2017-10-18T02:55:45Z,42.805,6.029,13.2936,4.59964,2471.912,2017-10-18T04:57:10Z
2017-10-18T02:57:20Z,42.805,6.029,13.2934,4.59964,2471.912,2017-10-18T04:58:45Z
2017-10-18T02:58:55Z,42.805,6.029,13.2938,4.59962,2471.919,2017-10-18T05:00:20Z
2017-10-18T03:00:30Z,42.805,6.029,13.2941,4.59962,2471.934,2017-10-18T05:01:55Z
2017-10-18T03:02:05Z,42.805,6.029,13.2939,4.59963,2471.934,2017-10-18T05:03:30Z
2017-10-18T03:03:40Z,42.805,6.029,13.2939,4.59964,2471.919,2017-10-18T05:05:04Z
2017-10-18T03:05:14Z,42.805,6.029,13.2934,4.59963,2471.934,2017-10-18T05:06:39Z
2017-10-18T03:06:49Z,42.805,6.029,13.2936,4.59964,2471.897,2017-10-18T05:08:14Z
2017-10-18T03:08:24Z,42.805,6.029,13.2935,4.59964,2471.912,2017-10-18T05:09:49Z
2017-10-18T03:09:59Z,42.805,6.029,13.2940,4.59963,2471.942,2017-10-18T05:11:24Z
2017-10-18T03:11:34Z,42.805,6.029,13.2935,4.59965,2471.919,2017-10-18T05:12:59Z
2017-10-18T03:13:09Z,42.805,6.029,13.2939,4.59963,2471.957,2017-10-18T05:14:33Z
2017-10-18T03:14:43Z,42.805,6.029,13.2940,4.59962,2471.942,2017-10-18T05:16:08Z
2017-10-18T03:16:18Z,42.805,6.029,13.2935,4.59967,2471.919,2017-10-18T05:17:43Z
2017-10-18T03:17:53Z,42.805,6.029,13.2938,4.59967,2471.957,2017-10-18T05:19:18Z
2017-10-18T03:19:28Z,42.805,6.029,13.2936,4.59964,2471.919,2017-10-18T05:20:53Z
2017-10-18T03:21:03Z,42.805,6.029,13.2937,4.59964,2471.957,2017-10-18T05:22:28Z
2017-10-18T03:22:38Z,42.805,6.029,13.2935,4.59963,2471.934,2017-10-18T05:24:02Z
2017-10-18T03:24:12Z,42.805,6.029,13.2942,4.59961,2471.957,2017-10-18T05:25:37Z
2017-10-18T03:25:47Z,42.805,6.029,13.2937,4.59964,2471.942,2017-10-18T05:27:12Z
2017-10-18T03:27:22Z,42.805,6.029,13.2936,4.59964,2471.964,2017-10-18T05:28:47Z
2017-10-18T03:28:57Z,42.805,6.029,13.2934,4.59963,2471.957,2017-10-18T05:30:22Z
2017-10-18T03:30:32Z,42.805,6.029,13.2941,4.59961,2471.964,2017-10-18T05:31:57Z
2017-10-18T03:32:07Z,42.805,6.029,13.2937,4.59961,2471.957,2017-10-18T05:33:31Z
2017-10-18T03:33:41Z,42.805,6.029,13.2941,4.59963,2471.957,2017-10-18T05:35:06Z
2017-10-18T03:35:16Z,42.805,6.029,13.2940,4.59964,2471.919,2017-10-18T05:36:41Z
2017-10-18T03:36:51Z,42.805,6.029,13.2937,4.59962,2471.957,2017-10-18T05:38:16Z
2017-10-18T03:38:26Z,42.805,6.029,13.2936,4.59962,2471.957,2017-10-18T05:39:51Z
2017-10-18T03:40:01Z,42.805,6.029,13.2937,4.59962,2471.942,2017-10-18T05:41:26Z
2017-10-18T03:41:36Z,42.805,6.029,13.2938,4.59962,2471.957,2017-10-18T05:43:00Z
2017-10-18T03:43:10Z,42.805,6.029,13.2938,4.59961,2471.957,2017-10-18T05:44:35Z
2017-10-18T03:44:45Z,42.805,6.029,13.2940,4.59965,2471.979,2017-10-18T05:46:10Z
2017-10-18T03:46:20Z,42.805,6.029,13.2939,4.59964,2471.964,2017-10-18T05:47:45Z
2017-10-18T03:47:55Z,42.805,6.029,13.2939,4.59963,2471.957,2017-10-18T05:49:20Z
2017-10-18T03:49:30Z,42.805,6.029,13.2939,4.59964,2471.919,2017-10-18T05:50:55Z
2017-10-18T03:51:05Z,42.805,6.029,13.2939,4.59963,2471.942,2017-10-18T05:52:30Z
2017-10-18T03:52:39Z,42.805,6.029,13.2942,4.59961,2471.957,2017-10-18T05:54:04Z
2017-10-18T03:54:14Z,42.805,6.029,13.2942,4.59964,2471.979,2017-10-18T05:55:39Z
2017-10-18T03:55:49Z,42.805,6.029,13.2936,4.59961,2471.987,2017-10-18T05:57:14Z
2017-10-18T03:57:24Z,42.805,6.029,13.2939,4.59964,2471.964,2017-10-18T05:58:49Z
2017-10-18T03:58:59Z,42.805,6.029,13.2937,4.59964,2471.957,2017-10-18T06:00:24Z
2017-10-18T04:00:34Z,42.805,6.029,13.2939,4.59963,2471.979,2017-10-18T06:01:59Z
2017-10-18T04:02:08Z,42.805,6.029,13.2936,4.59962,2471.957,2017-10-18T06:03:33Z
2017-10-18T04:03:43Z,42.805,6.029,13.2939,4.59963,2471.987,2017-10-18T06:05:08Z
2017-10-18T04:05:18Z,42.805,6.029,13.2936,4.59964,2471.964,2017-10-18T06:06:43Z
2017-10-18T04:06:53Z,42.805,6.029,13.2939,4.59963,2471.942,2017-10-18T06:08:18Z
2017-10-18T04:08:28Z,42.805,6.029,13.2939,4.59965,2472.002,2017-10-18T06:09:53Z
2017-10-18T04:10:03Z,42.805,6.029,13.2939,4.59967,2472.002,2017-10-18T06:11:28Z
2017-10-18T04:11:37Z,42.805,6.029,13.2939,4.59962,2472.002,2017-10-18T06:13:02Z
2017-10-18T04:13:12Z,42.805,6.029,13.2940,4.59963,2471.964,2017-10-18T06:14:37Z
2017-10-18T04:14:47Z,42.805,6.029,13.2939,4.59964,2472.002,2017-10-18T06:16:12Z
2017-10-18T04:16:22Z,42.805,6.029,13.2939,4.59964,2472.002,2017-10-18T06:17:47Z
2017-10-18T04:17:57Z,42.805,6.029,13.2940,4.59964,2471.979,2017-10-18T06:19:22Z
2017-10-18T04:19:32Z,42.805,6.029,13.2937,4.59963,2471.987,2017-10-18T06:20:57Z
2017-10-18T04:21:06Z,42.805,6.029,13.2939,4.59962,2471.987,2017-10-18T06:22:31Z
2017-10-18T04:22:41Z,42.805,6.029,13.2935,4.59964,2471.987,2017-10-18T06:24:06Z
2017-10-18T04:24:16Z,42.805,6.029,13.2942,4.59964,2472.002,2017-10-18T06:25:41Z
2017-10-18T04:25:51Z,42.805,6.029,13.2940,4.59962,2471.979,2017-10-18T06:27:16Z
2017-10-18T04:27:26Z,42.805,6.029,13.2940,4.59964,2471.964,2017-10-18T06:28:51Z
2017-10-18T04:29:01Z,42.805,6.029,13.2942,4.59963,2471.979,2017-10-18T06:30:26Z
2017-10-18T04:30:35Z,42.805,6.029,13.2938,4.59963,2471.987,2017-10-18T06:32:00Z
2017-10-18T04:32:10Z,42.805,6.029,13.2939,4.59964,2472.002,2017-10-18T06:33:35Z
2017-10-18T04:33:45Z,42.805,6.029,13.2935,4.59963,2472.01,2017-10-18T06:35:10Z
2017-10-18T04:35:20Z,42.805,6.029,13.2942,4.59964,2472.002,2017-10-18T06:36:45Z
2017-10-18T04:36:55Z,42.805,6.029,13.2940,4.59963,2472.002,2017-10-18T06:38:20Z
2017-10-18T04:38:30Z,42.805,6.029,13.2940,4.59962,2472.01,2017-10-18T06:39:55Z
2017-10-18T04:40:05Z,42.805,6.029,13.2938,4.59962,2471.987,2017-10-18T06:41:29Z
2017-10-18T04:41:39Z,42.805,6.029,13.2939,4.59963,2472.01,2017-10-18T06:43:04Z
2017-10-18T04:43:14Z,42.805,6.029,13.2937,4.59963,2471.987,2017-10-18T06:44:39Z
2017-10-18T04:44:49Z,42.805,6.029,13.2938,4.59964,2472.01,2017-10-18T06:46:14Z
2017-10-18T04:46:24Z,42.805,6.029,13.2939,4.59967,2472.002,2017-10-18T06:47:49Z
2017-10-18T04:47:59Z,42.805,6.029,13.2940,4.59964,2472.002,2017-10-18T06:49:24Z
2017-10-18T04:49:34Z,42.805,6.029,13.2940,4.59963,2472.002,2017-10-18T06:50:58Z
2017-10-18T04:51:08Z,42.805,6.029,13.2939,4.59962,2472.002,2017-10-18T06:52:33Z
2017-10-18T04:52:43Z,42.805,6.029,13.2939,4.59962,2472.024,2017-10-18T06:54:08Z
2017-10-18T04:54:18Z,42.805,6.029,13.2939,4.59962,2472.002,2017-10-18T06:55:43Z
2017-10-18T04:55:53Z,42.805,6.029,13.2940,4.59962,2472.024,2017-10-18T06:57:18Z
2017-10-18T04:57:28Z,42.805,6.029,13.2940,4.59962,2472.024,2017-10-18T06:58:53Z
2017-10-18T04:59:03Z,42.805,6.029,13.2939,4.59961,2472.01,2017-10-18T07:00:27Z
2017-10-18T05:00:37Z,42.805,6.029,13.2942,4.59962,2472.024,2017-10-18T07:02:02Z
2017-10-18T05:02:12Z,42.805,6.029,13.2935,4.59964,2472.069,2017-10-18T07:03:37Z
2017-10-18T05:03:47Z,42.805,6.029,13.2939,4.59966,2471.987,2017-10-18T07:05:12Z
2017-10-18T05:05:22Z,42.805,6.029,13.2940,4.59965,2472.024,2017-10-18T07:06:47Z
2017-10-18T05:06:57Z,42.805,6.029,13.2943,4.59962,2472.047,2017-10-18T07:08:22Z
2017-10-18T05:08:32Z,42.805,6.029,13.2939,4.59963,2472.069,2017-10-18T07:09:56Z
2017-10-18T05:10:06Z,42.805,6.029,13.2940,4.59964,2472.024,2017-10-18T07:11:31Z
2017-10-18T05:11:41Z,42.805,6.029,13.2939,4.59964,2472.024,2017-10-18T07:13:06Z
2017-10-18T05:13:16Z,42.805,6.029,13.2941,4.59962,2472.024,2017-10-18T07:14:41Z
2017-10-18T05:14:51Z,42.805,6.029,13.2940,4.59964,2472.024,2017-10-18T07:16:16Z
2017-10-18T05:16:26Z,42.805,6.029,13.2939,4.59964,2472.047,2017-10-18T07:17:51Z
2017-10-18T05:18:01Z,42.805,6.029,13.2939,4.59967,2472.01,2017-10-18T07:19:25Z
2017-10-18T05:19:35Z,42.805,6.029,13.2939,4.59962,2472.024,2017-10-18T07:21:00Z
2017-10-18T05:21:10Z,42.805,6.029,13.2937,4.59967,2472.024,2017-10-18T07:22:35Z
2017-10-18T05:22:45Z,42.805,6.029,13.2939,4.59962,2472.024,2017-10-18T07:24:10Z
2017-10-18T05:24:20Z,42.805,6.029,13.2938,4.59962,2472.047,2017-10-18T07:25:45Z
2017-10-18T05:25:55Z,42.805,6.029,13.2937,4.59964,2472.024,2017-10-18T07:27:20Z
2017-10-18T05:27:30Z,42.805,6.029,13.2939,4.59961,2472.024,2017-10-18T07:28:54Z
2017-10-18T05:29:04Z,42.805,6.029,13.2934,4.59964,2472.01,2017-10-18T07:30:29Z
2017-10-18T05:30:39Z,42.805,6.029,13.2938,4.59964,2472.032,2017-10-18T07:32:04Z
2017-10-18T05:32:14Z,42.805,6.029,13.2943,4.59964,2472.047,2017-10-18T07:33:39Z
2017-10-18T05:33:49Z,42.805,6.029,13.2939,4.59965,2472.047,2017-10-18T07:35:14Z
2017-10-18T05:35:24Z,42.805,6.029,13.2938,4.59962,2472.047,2017-10-18T07:36:49Z
2017-10-18T05:36:59Z,42.805,6.029,13.2935,4.59961,2472.01,2017-10-18T07:38:24Z
2017-10-18T05:38:33Z,42.805,6.029,13.2933,4.59961,2472.069,2017-10-18T07:39:58Z
2017-10-18T05:40:08Z,42.805,6.029,13.2937,4.59962,2472.024,2017-10-18T07:41:33Z
2017-10-18T05:41:43Z,42.805,6.029,13.2939,4.59961,2472.01,2017-10-18T07:43:08Z
2017-10-18T05:43:18Z,42.805,6.029,13.2940,4.59960,2472.024,2017-10-18T07:44:43Z
2017-10-18T05:44:53Z,42.805,6.029,13.2939,4.59962,2472.024,2017-10-18T07:46:18Z
2017-10-18T05:46:28Z,42.805,6.029,13.2944,4.59964,2472.024,2017-10-18T07:47:53Z
2017-10-18T05:48:02Z,42.805,6.029,13.2936,4.59963,2472.024,2017-10-18T07:49:27Z
2017-10-18T05:49:37Z,42.805,6.029,13.2935,4.59965,2472.024,2017-10-18T07:51:02Z
2017-10-18T05:51:12Z,42.805,6.029,13.2940,4.59964,2472.024,2017-10-18T07:52:37Z
2017-10-18T05:52:47Z,42.805,6.029,13.2935,4.59961,2472.002,2017-10-18T07:54:12Z
2017-10-18T05:54:22Z,42.805,6.029,13.2935,4.59961,2472.024,2017-10-18T07:55:47Z
2017-10-18T05:55:57Z,42.805,6.029,13.2935,4.59961,2472.024,2017-10-18T07:57:22Z
2017-10-18T05:57:32Z,42.805,6.029,13.2938,4.59962,2472.01,2017-10-18T07:58:56Z
2017-10-18T05:59:06Z,42.805,6.029,13.2938,4.59961,2472.047,2017-10-18T08:00:31Z
2017-10-18T06:00:41Z,42.805,6.029,13.2940,4.59961,2472.024,2017-10-18T08:02:06Z
2017-10-18T06:02:16Z,42.805,6.029,13.2939,4.59963,2472.032,2017-10-18T08:03:41Z
2017-10-18T06:03:51Z,42.805,6.029,13.2936,4.59963,2472.024,2017-10-18T08:05:16Z
2017-10-18T06:05:26Z,42.805,6.029,13.2939,4.59962,2472.024,2017-10-18T08:06:51Z
2017-10-18T06:07:00Z,42.805,6.029,13.2936,4.59965,2472.002,2017-10-18T08:08:25Z
2017-10-18T06:08:35Z,42.805,6.029,13.2941,4.59961,2472.047,2017-10-18T08:10:00Z
2017-10-18T06:10:10Z,42.805,6.029,13.2938,4.59963,2472.032,2017-10-18T08:11:35Z
2017-10-18T06:11:45Z,42.805,6.029,13.2939,4.59963,2472.032,2017-10-18T08:13:10Z
2017-10-18T06:13:20Z,42.805,6.029,13.2939,4.59963,2472.01,2017-10-18T08:14:45Z
2017-10-18T06:14:55Z,42.805,6.029,13.2939,4.59967,2472.024,2017-10-18T08:16:20Z
2017-10-18T06:16:29Z,42.805,6.029,13.2936,4.59961,2472.047,2017-10-18T08:17:54Z
2017-10-18T06:18:04Z,42.805,6.029,13.2939,4.59962,2472.024,2017-10-18T08:19:29Z
2017-10-18T06:19:39Z,42.805,6.029,13.2938,4.59964,2472.047,2017-10-18T08:21:04Z
2017-10-18T06:21:14Z,42.805,6.029,13.2936,4.59961,2472.069,2017-10-18T08:22:39Z
2017-10-18T06:22:49Z,42.805,6.029,13.2940,4.59966,2472.01,2017-10-18T08:24:14Z
2017-10-18T06:24:24Z,42.805,6.029,13.2939,4.59961,2472.01,2017-10-18T08:25:49Z
2017-10-18T06:25:59Z,42.805,6.029,13.2936,4.59963,2472.024,2017-10-18T08:27:23Z
2017-10-18T06:27:33Z,42.805,6.029,13.2934,4.59962,2471.987,2017-10-18T08:28:58Z
2017-10-18T06:29:08Z,42.805,6.029,13.2939,4.59962,2472.024,2017-10-18T08:30:33Z
2017-10-18T06:30:43Z,42.805,6.029,13.2941,4.59962,2472.055,2017-10-18T08:32:08Z
2017-10-18T06:32:18Z,42.805,6.029,13.2940,4.59962,2472.047,2017-10-18T08:33:43Z
2017-10-18T06:33:53Z,42.805,6.029,13.2935,4.59963,2472.01,2017-10-18T08:35:18Z
2017-10-18T06:35:28Z,42.805,6.029,13.2940,4.59963,2472.047,2017-10-18T08:36:52Z
2017-10-18T06:37:02Z,42.805,6.029,13.2942,4.59963,2472.032,2017-10-18T08:38:27Z
2017-10-18T06:38:37Z,42.805,6.029,13.2940,4.59964,2472.047,2017-10-18T08:40:02Z
2017-10-18T06:40:12Z,42.805,6.029,13.2939,4.59964,2472.047,2017-10-18T08:41:37Z
2017-10-18T06:41:47Z,42.805,6.029,13.2940,4.59962,2472.069,2017-10-18T08:43:12Z
2017-10-18T06:43:22Z,42.805,6.029,13.2938,4.59963,2472.024,2017-10-18T08:44:47Z
2017-10-18T06:44:57Z,42.805,6.029,13.2941,4.59962,2472.069,2017-10-18T08:46:21Z
2017-10-18T06:46:31Z,42.805,6.029,13.2942,4.59963,2472.032,2017-10-18T08:47:56Z
2017-10-18T06:48:06Z,42.805,6.029,13.2943,4.59961,2472.024,2017-10-18T08:49:31Z
2017-10-18T06:49:41Z,42.805,6.029,13.2936,4.59961,2472.024,2017-10-18T08:51:06Z
2017-10-18T06:51:16Z,42.805,6.029,13.2936,4.59961,2472.024,2017-10-18T08:52:41Z
2017-10-18T06:52:51Z,42.805,6.029,13.2936,4.59961,2472.024,2017-10-18T08:54:16Z
2017-10-18T06:54:26Z,42.805,6.029,13.2939,4.59962,2472.032,2017-10-18T08:55:50Z
2017-10-18T06:56:00Z,42.805,6.029,13.2939,4.59963,2472.024,2017-10-18T08:57:25Z
2017-10-18T06:57:35Z,42.805,6.029,13.2939,4.59963,2472.032,2017-10-18T08:59:00Z
2017-10-18T06:59:10Z,42.805,6.029,13.2940,4.59961,2472.047,2017-10-18T09:00:35Z
2017-10-18T07:00:45Z,42.805,6.029,13.2940,4.59964,2472.032,2017-10-18T09:02:10Z
2017-10-18T07:02:20Z,42.805,6.029,13.2940,4.59961,2472.032,2017-10-18T09:03:45Z
2017-10-18T07:03:55Z,42.805,6.029,13.2939,4.59967,2472.047,2017-10-18T09:05:19Z
2017-10-18T07:05:29Z,42.805,6.029,13.2944,4.59964,2472.024,2017-10-18T09:06:54Z
2017-10-18T07:07:04Z,42.805,6.029,13.2940,4.59961,2472.032,2017-10-18T09:08:29Z
2017-10-18T07:08:39Z,42.805,6.029,13.2939,4.59961,2472.047,2017-10-18T09:10:04Z
2017-10-18T07:10:14Z,42.805,6.029,13.2939,4.59961,2472.024,2017-10-18T09:11:39Z
2017-10-18T07:11:49Z,42.805,6.029,13.2937,4.59961,2472.024,2017-10-18T09:13:14Z
2017-10-18T07:13:24Z,42.805,6.029,13.2937,4.59961,2472.047,2017-10-18T09:14:48Z
2017-10-18T07:14:58Z,42.805,6.029,13.2939,4.59961,2472.01,2017-10-18T09:16:23Z
2017-10-18T07:16:33Z,42.805,6.029,13.2944,4.59961,2472.01,2017-10-18T09:17:58Z
2017-10-18T07:18:08Z,42.805,6.029,13.2938,4.59963,2472.002,2017-10-18T09:19:33Z
2017-10-18T07:19:43Z,42.805,6.029,13.2940,4.59961,2472.01,2017-10-18T09:21:08Z
2017-10-18T07:21:18Z,42.805,6.029,13.2936,4.59963,2472.032,2017-10-18T09:22:43Z
2017-10-18T07:22:53Z,42.805,6.029,13.2942,4.59961,2472.047,2017-10-18T09:24:18Z
2017-10-18T07:24:27Z,42.805,6.029,13.2941,4.59965,2472.024,2017-10-18T09:25:52Z
2017-10-18T07:26:02Z,42.805,6.029,13.2938,4.59963,2472.032,2017-10-18T09:27:27Z
2017-10-18T07:27:37Z,42.805,6.029,13.2940,4.59967,2472.01,2017-10-18T09:29:02Z
2017-10-18T07:29:12Z,42.805,6.029,13.2940,4.59963,2472.032,2017-10-18T09:30:37Z
2017-10-18T07:30:47Z,42.805,6.029,13.2937,4.59964,2472.024,2017-10-18T09:32:12Z
2017-10-18T07:32:22Z,42.805,6.029,13.2935,4.59961,2472.047,2017-10-18T09:33:47Z
2017-10-18T07:33:56Z,42.805,6.029,13.2940,4.59961,2472.024,2017-10-18T09:35:21Z
2017-10-18T07:35:31Z,42.805,6.029,13.2937,4.59961,2472.01,2017-10-18T09:36:56Z
2017-10-18T07:37:06Z,42.805,6.029,13.2941,4.59960,2472.01,2017-10-18T09:38:31Z
2017-10-18T07:38:41Z,42.805,6.029,13.2934,4.59961,2472.002,2017-10-18T09:40:06Z
2017-10-18T07:40:16Z,42.805,6.029,13.2943,4.59961,2472.024,2017-10-18T09:41:41Z
2017-10-18T07:41:51Z,42.805,6.029,13.2940,4.59961,2472.002,2017-10-18T09:43:16Z
2017-10-18T07:43:25Z,42.805,6.029,13.2940,4.59961,2472.024,2017-10-18T09:44:50Z
2017-10-18T07:45:00Z,42.805,6.029,13.2939,4.59959,2472.002,2017-10-18T09:46:25Z